[ hide orbit diagram ]
For accurate long-term ephemerides, please instead use our Horizons system.This orbit viewer was implemented using two-body methods, and hence should not be used for determining accurate long-term trajectories (over several years or decades) or planetary encounter circumstances.
Orbital Elements at Epoch 2459200.5 (2020-Dec-17.0) TDB
Reference: JPL 29 (heliocentric ecliptic J2000)
Element | Value | Uncertainty (1-sigma) | Units |
e | .1515666651615677 | 4.3672e-08 | |
a | 3.143911069772201 | 1.9041e-08 | au |
q | 2.667398953362291 | 1.3176e-07 | au |
i | 6.284471292991761 | 3.5418e-06 | deg |
node | 107.3368734035956 | 3.6957e-05 | deg |
peri | 247.7047046669405 | 3.8733e-05 | deg |
M | 95.67207865263492 | 1.1547e-05 | deg |
tp | 2458659.388809708126 (2019-Jun-24.88880971) | 6.5279e-05 | TDB |
period | 2036.122045726134 5.57 | 1.8498e-05 5.064e-08 | d yr |
n | .1768066903237201 | 1.6062e-09 | deg/d |
Q | 3.62042318618211 | 2.1927e-08 | au |
|
| | Orbit Determination Parameters
Additional Information
|
[ show covariance matrix ]
Physical Parameter Table
Parameter |
Symbol |
Value |
Units |
Sigma |
Reference |
Notes |
absolute magnitude |
H |
13.71 |
|
n/a |
E2021B10 |
|
diameter |
diameter |
8.170 |
km |
0.403 |
urn:nasa:pds:neowise_diameters_albedos::2.0[mainbelt] (http://adsabs.harvard.edu/abs/2011ApJ...741...68M) |
|
geometric albedo |
albedo |
0.127 |
|
0.030 |
urn:nasa:pds:neowise_diameters_albedos::2.0[mainbelt] (http://adsabs.harvard.edu/abs/2011ApJ...741...68M) |
|
|
26185 (1996 NG) Discovered 1996-Jul-14 by JPL/GEODSS NEAT at Haleakala |
Reference: 20010705/Numbers.arc | Last Updated: 2004-04-19 |
|
[ show close-approach data ]
|